Time,TemperatureF,DewpointF,PressureIn,WindDirection,WindDirectionDegrees,WindSpeedMPH,WindSpeedGustMPH,Humidity,HourlyPrecipIn,Conditions,Clouds,dailyrainin,SoftwareType,DateUTC
2013-12-09 00:13:00,28.9,26.0,30.13,SSE,165,0.0,-999.0,88,-99.99,,,0.00,weatherlink.com 1.10,2013-12-09 07:13:00,
2013-12-09 00:28:00,28.8,26.0,30.14,SSE,164,0.0,-999.0,88,-99.99,,,0.00,weatherlink.com 1.10,2013-12-09 07:28:00,
2013-12-09 00:43:00,28.8,26.0,30.15,SSE,165,0.0,-999.0,88,-99.99,,,0.00,weatherlink.com 1.10,2013-12-09 07:43:00,
2013-12-09 00:58:00,29.7,27.0,30.16,SSE,164,0.0,-999.0,89,-99.99,,,0.00,weatherlink.com 1.10,2013-12-09 07:58:00,
2013-12-09 01:13:00,31.4,29.0,30.17,SSE,165,0.0,-999.0,90,-99.99,,,0.00,weatherlink.com 1.10,2013-12-09 08:13:00,
2013-12-09 01:28:00,32.4,30.0,30.16,SSE,164,0.0,-999.0,90,-99.99,,,0.00,weatherlink.com 1.10,2013-12-09 08:28:00,
2013-12-09 01:43:00,32.9,30.0,30.16,SSE,164,0.0,-999.0,90,-99.99,,,0.00,weatherlink.com 1.10,2013-12-09 08:43:00,
2013-12-09 01:58:00,33.5,31.0,30.15,SSE,164,0.0,-999.0,90,-99.99,,,0.00,weatherlink.com 1.10,2013-12-09 08:58:00,
2013-12-09 02:13:00,34.4,32.0,30.15,SSE,164,0.0,-999.0,91,-99.99,,,0.00,weatherlink.com 1.10,2013-12-09 09:13:00,
2013-12-09 02:28:00,34.7,32.0,30.15,SSE,164,0.0,-999.0,91,-99.99,,,0.00,weatherlink.com 1.10,2013-12-09 09:28:00,
2013-12-09 02:43:00,35.1,33.0,30.14,SSE,164,0.0,-999.0,91,-99.99,,,0.00,weatherlink.com 1.10,2013-12-09 09:43:00,
2013-12-09 02:58:00,35.6,33.0,30.14,SSE,165,0.0,-999.0,91,-99.99,,,0.00,weatherlink.com 1.10,2013-12-09 09:58:00,
2013-12-09 03:13:00,35.9,34.0,30.14,SSE,164,0.0,-999.0,91,-99.99,,,0.00,weatherlink.com 1.10,2013-12-09 10:13:00,
2013-12-09 03:28:00,36.1,34.0,30.14,SSE,164,0.0,-999.0,91,-99.99,,,0.00,weatherlink.com 1.10,2013-12-09 10:28:00,
2013-12-09 03:43:00,36.4,34.0,30.14,SSE,164,0.0,-999.0,91,-99.99,,,0.00,weatherlink.com 1.10,2013-12-09 10:43:00,
2013-12-09 03:58:00,36.9,35.0,30.14,SSE,165,0.0,-999.0,91,-99.99,,,0.00,weatherlink.com 1.10,2013-12-09 10:58:00,
2013-12-09 04:13:00,37.1,35.0,30.14,SSE,164,0.0,-999.0,91,-99.99,,,0.00,weatherlink.com 1.10,2013-12-09 11:13:00,
2013-12-09 04:28:00,37.5,35.0,30.14,SSE,165,0.0,-999.0,91,-99.99,,,0.00,weatherlink.com 1.10,2013-12-09 11:28:00,
2013-12-09 04:43:00,37.8,36.0,30.14,SSE,164,0.0,-999.0,91,-99.99,,,0.00,weatherlink.com 1.10,2013-12-09 11:43:00,
2013-12-09 04:58:00,38.1,36.0,30.14,SSE,164,0.0,-999.0,92,-99.99,,,0.00,weatherlink.com 1.10,2013-12-09 11:58:00,
2013-12-09 05:13:00,38.4,36.0,30.15,SSE,164,0.0,-999.0,91,-99.99,,,0.00,weatherlink.com 1.10,2013-12-09 12:13:00,
2013-12-09 05:28:00,38.6,36.0,30.16,SSE,165,0.0,-999.0,91,-99.99,,,0.00,weatherlink.com 1.10,2013-12-09 12:28:00,
2013-12-09 05:43:00,38.8,37.0,30.16,SSE,164,0.0,-999.0,92,-99.99,,,0.01,weatherlink.com 1.10,2013-12-09 12:43:00,
2013-12-09 05:58:00,38.8,37.0,30.16,SSE,164,0.0,-999.0,92,-99.99,,,0.01,weatherlink.com 1.10,2013-12-09 12:58:00,
2013-12-09 06:13:00,39.0,37.0,30.17,SSE,165,0.0,-999.0,92,-99.99,,,0.01,weatherlink.com 1.10,2013-12-09 13:13:00,
2013-12-09 06:28:00,39.1,37.0,30.17,SSE,164,1.0,-999.0,92,-99.99,,,0.01,weatherlink.com 1.10,2013-12-09 13:28:00,
2013-12-09 06:43:00,39.0,37.0,30.18,SSE,164,0.0,-999.0,91,-99.99,,,0.01,weatherlink.com 1.10,2013-12-09 13:43:00,
2013-12-09 06:58:00,39.3,37.0,30.19,ENE,72,2.0,-999.0,92,-99.99,,,0.01,weatherlink.com 1.10,2013-12-09 13:58:00,
2013-12-09 07:13:00,38.6,36.0,30.19,ENE,72,3.0,-999.0,91,-99.99,,,0.01,weatherlink.com 1.10,2013-12-09 14:13:00,
2013-12-09 07:28:00,38.2,36.0,30.20,ENE,72,0.0,-999.0,91,-99.99,,,0.01,weatherlink.com 1.10,2013-12-09 14:28:00,
2013-12-09 07:43:00,38.1,36.0,30.20,ENE,72,1.0,-999.0,92,-99.99,,,0.02,weatherlink.com 1.10,2013-12-09 14:43:00,
2013-12-09 07:58:00,37.8,36.0,30.20,ENE,72,1.0,-999.0,91,-99.99,,,0.02,weatherlink.com 1.10,2013-12-09 14:58:00,
2013-12-09 08:13:00,37.8,36.0,30.21,ENE,72,1.0,-999.0,92,-99.99,,,0.02,weatherlink.com 1.10,2013-12-09 15:13:00,
2013-12-09 08:28:00,37.7,36.0,30.22,ENE,72,2.0,-999.0,92,-99.99,,,0.02,weatherlink.com 1.10,2013-12-09 15:28:00,
2013-12-09 08:43:00,37.7,36.0,30.24,NNE,14,2.0,-999.0,92,-99.99,,,0.02,weatherlink.com 1.10,2013-12-09 15:43:00,
2013-12-09 08:58:00,37.6,36.0,30.24,NNE,13,3.0,-999.0,92,-99.99,,,0.02,weatherlink.com 1.10,2013-12-09 15:58:00,
2013-12-09 09:13:00,37.7,36.0,30.24,NNE,13,3.0,-999.0,92,-99.99,,,0.02,weatherlink.com 1.10,2013-12-09 16:13:00,
2013-12-09 09:28:00,37.7,36.0,30.23,North,11,1.0,-999.0,92,-99.99,,,0.02,weatherlink.com 1.10,2013-12-09 16:28:00,
2013-12-09 09:43:00,37.5,35.0,30.23,North,4,2.0,-999.0,92,-99.99,,,0.02,weatherlink.com 1.10,2013-12-09 16:43:00,
2013-12-09 09:58:00,37.6,36.0,30.23,North,2,4.0,-999.0,92,-99.99,,,0.02,weatherlink.com 1.10,2013-12-09 16:58:00,
2013-12-09 10:14:00,37.9,36.0,30.23,NNE,27,3.0,-999.0,92,-99.99,,,0.03,weatherlink.com 1.10,2013-12-09 17:14:00,
2013-12-09 10:29:00,38.1,36.0,30.24,NNE,30,3.0,-999.0,92,-99.99,,,0.03,weatherlink.com 1.10,2013-12-09 17:29:00,
2013-12-09 10:44:00,38.0,36.0,30.24,NNE,31,3.0,-999.0,92,-99.99,,,0.03,weatherlink.com 1.10,2013-12-09 17:44:00,
2013-12-09 10:59:00,38.1,36.0,30.23,NNE,31,4.0,-999.0,92,-99.99,,,0.03,weatherlink.com 1.10,2013-12-09 17:59:00,
2013-12-09 11:14:00,37.9,36.0,30.23,NNE,19,0.0,-999.0,92,-99.99,,,0.03,weatherlink.com 1.10,2013-12-09 18:14:00,
2013-12-09 11:29:00,37.9,36.0,30.22,NNE,19,5.0,-999.0,92,-99.99,,,0.03,weatherlink.com 1.10,2013-12-09 18:29:00,
2013-12-09 11:44:00,38.1,36.0,30.22,North,358,2.0,-999.0,92,-99.99,,,0.03,weatherlink.com 1.10,2013-12-09 18:44:00,
2013-12-09 11:59:00,38.6,37.0,30.21,NNE,30,0.0,-999.0,92,-99.99,,,0.03,weatherlink.com 1.10,2013-12-09 18:59:00,
2013-12-09 12:14:00,38.7,36.0,30.20,North,3,3.0,-999.0,91,-99.99,,,0.03,weatherlink.com 1.10,2013-12-09 19:14:00,
2013-12-09 12:29:00,39.1,37.0,30.19,NNE,21,1.0,-999.0,92,-99.99,,,0.03,weatherlink.com 1.10,2013-12-09 19:29:00,
2013-12-09 12:44:00,39.2,37.0,30.19,NNE,12,3.0,-999.0,92,-99.99,,,0.03,weatherlink.com 1.10,2013-12-09 19:44:00,
2013-12-09 12:59:00,39.2,37.0,30.19,NNE,19,3.0,-999.0,91,-99.99,,,0.03,weatherlink.com 1.10,2013-12-09 19:59:00,
2013-12-09 13:14:00,39.0,37.0,30.20,NNE,22,1.0,-999.0,91,-99.99,,,0.03,weatherlink.com 1.10,2013-12-09 20:14:00,
2013-12-09 13:29:00,38.7,36.0,30.19,NNE,30,4.0,-999.0,91,-99.99,,,0.03,weatherlink.com 1.10,2013-12-09 20:29:00,
2013-12-09 13:43:00,38.4,36.0,30.20,NNE,28,5.0,-999.0,90,-99.99,,,0.03,weatherlink.com 1.10,2013-12-09 20:43:00,
2013-12-09 13:58:00,38.3,36.0,30.20,NNE,26,4.0,-999.0,91,-99.99,,,0.03,weatherlink.com 1.10,2013-12-09 20:58:00,
2013-12-09 14:14:00,38.2,36.0,30.20,NNE,14,1.0,-999.0,91,-99.99,,,0.03,weatherlink.com 1.10,2013-12-09 21:14:00,
2013-12-09 14:29:00,38.2,36.0,30.20,NNE,20,4.0,-999.0,91,-99.99,,,0.03,weatherlink.com 1.10,2013-12-09 21:29:00,
2013-12-09 14:44:00,38.1,36.0,30.21,North,1,3.0,-999.0,91,-99.99,,,0.03,weatherlink.com 1.10,2013-12-09 21:44:00,
2013-12-09 14:59:00,38.0,35.0,30.21,NNE,20,3.0,-999.0,90,-99.99,,,0.03,weatherlink.com 1.10,2013-12-09 21:59:00,
2013-12-09 15:14:00,37.9,35.0,30.22,NE,34,3.0,-999.0,90,-99.99,,,0.03,weatherlink.com 1.10,2013-12-09 22:14:00,
2013-12-09 15:29:00,37.3,35.0,30.23,NNE,19,3.0,-999.0,90,-99.99,,,0.03,weatherlink.com 1.10,2013-12-09 22:29:00,
2013-12-09 15:44:00,36.7,34.0,30.24,North,9,4.0,-999.0,90,-99.99,,,0.03,weatherlink.com 1.10,2013-12-09 22:44:00,
2013-12-09 15:59:00,36.2,34.0,30.25,NNE,17,5.0,-999.0,90,-99.99,,,0.03,weatherlink.com 1.10,2013-12-09 22:59:00,
2013-12-09 16:13:00,35.6,33.0,30.26,NNE,14,6.0,-999.0,90,-99.99,,,0.03,weatherlink.com 1.10,2013-12-09 23:13:00,
2013-12-09 16:28:00,34.8,32.0,30.27,NNE,28,9.0,-999.0,90,-99.99,,,0.03,weatherlink.com 1.10,2013-12-09 23:28:00,
2013-12-09 16:43:00,34.2,32.0,30.28,North,4,4.0,-999.0,90,-99.99,,,0.03,weatherlink.com 1.10,2013-12-09 23:43:00,
2013-12-09 16:58:00,33.4,31.0,30.29,NNE,13,3.0,-999.0,90,-99.99,,,0.03,weatherlink.com 1.10,2013-12-09 23:58:00,
2013-12-09 17:13:00,32.9,30.0,30.31,North,2,3.0,-999.0,90,-99.99,,,0.03,weatherlink.com 1.10,2013-12-10 00:13:00,
2013-12-09 17:28:00,32.5,30.0,30.32,NNE,13,6.0,-999.0,90,-99.99,,,0.03,weatherlink.com 1.10,2013-12-10 00:28:00,
2013-12-09 17:43:00,32.1,30.0,30.33,NNW,330,7.0,-999.0,90,-99.99,,,0.03,weatherlink.com 1.10,2013-12-10 00:43:00,
2013-12-09 17:58:00,31.6,29.0,30.34,North,7,4.0,-999.0,90,-99.99,,,0.03,weatherlink.com 1.10,2013-12-10 00:58:00,
2013-12-09 18:13:00,31.4,29.0,30.34,North,351,3.0,-999.0,91,-99.99,,,0.03,weatherlink.com 1.10,2013-12-10 01:13:00,
2013-12-09 18:28:00,31.3,29.0,30.36,North,3,5.0,-999.0,91,-99.99,,,0.03,weatherlink.com 1.10,2013-12-10 01:28:00,
2013-12-09 18:43:00,31.1,29.0,30.37,NNW,338,5.0,-999.0,90,-99.99,,,0.03,weatherlink.com 1.10,2013-12-10 01:43:00,
2013-12-09 18:58:00,31.0,29.0,30.38,North,8,3.0,-999.0,90,-99.99,,,0.03,weatherlink.com 1.10,2013-12-10 01:58:00,
2013-12-09 19:13:00,30.6,28.0,30.38,NW,325,3.0,-999.0,90,-99.99,,,0.03,weatherlink.com 1.10,2013-12-10 02:13:00,
2013-12-09 19:28:00,30.5,28.0,30.40,NNW,331,6.0,-999.0,90,-99.99,,,0.03,weatherlink.com 1.10,2013-12-10 02:28:00,
2013-12-09 19:43:00,30.3,28.0,30.41,North,354,4.0,-999.0,90,-99.99,,,0.03,weatherlink.com 1.10,2013-12-10 02:43:00,
2013-12-09 19:58:00,30.3,28.0,30.41,NNE,15,2.0,-999.0,90,-99.99,,,0.03,weatherlink.com 1.10,2013-12-10 02:58:00,
2013-12-09 20:13:00,30.3,28.0,30.43,North,9,4.0,-999.0,90,-99.99,,,0.03,weatherlink.com 1.10,2013-12-10 03:13:00,
2013-12-09 20:28:00,30.3,28.0,30.43,North,354,9.0,-999.0,90,-99.99,,,0.03,weatherlink.com 1.10,2013-12-10 03:28:00,
2013-12-09 20:43:00,30.1,28.0,30.44,NNW,337,3.0,-999.0,90,-99.99,,,0.03,weatherlink.com 1.10,2013-12-10 03:43:00,
2013-12-09 20:58:00,29.9,27.0,30.45,NNE,15,2.0,-999.0,90,-99.99,,,0.03,weatherlink.com 1.10,2013-12-10 03:58:00,
2013-12-09 21:13:00,29.8,27.0,30.45,NNW,338,3.0,-999.0,90,-99.99,,,0.03,weatherlink.com 1.10,2013-12-10 04:13:00,
2013-12-09 21:28:00,29.9,27.0,30.46,North,359,3.0,-999.0,90,-99.99,,,0.03,weatherlink.com 1.10,2013-12-10 04:28:00,
2013-12-09 21:43:00,29.8,27.0,30.47,NNE,16,2.0,-999.0,90,-99.99,,,0.03,weatherlink.com 1.10,2013-12-10 04:43:00,
2013-12-09 21:58:00,29.2,27.0,30.47,NW,311,15.0,-999.0,90,-99.99,,,0.03,weatherlink.com 1.10,2013-12-10 04:58:00,
2013-12-09 22:13:00,28.8,26.0,30.48,NNW,338,5.0,-999.0,89,-99.99,,,0.03,weatherlink.com 1.10,2013-12-10 05:13:00,
2013-12-09 22:28:00,28.7,26.0,30.48,NE,41,9.0,-999.0,89,-99.99,,,0.03,weatherlink.com 1.10,2013-12-10 05:28:00,
2013-12-09 22:43:00,28.7,26.0,30.49,North,9,4.0,-999.0,88,-99.99,,,0.03,weatherlink.com 1.10,2013-12-10 05:43:00,
2013-12-09 22:58:00,28.8,26.0,30.48,North,351,1.0,-999.0,88,-99.99,,,0.03,weatherlink.com 1.10,2013-12-10 05:58:00,
2013-12-09 23:13:00,28.9,26.0,30.49,WNW,295,5.0,-999.0,88,-99.99,,,0.03,weatherlink.com 1.10,2013-12-10 06:13:00,
2013-12-09 23:28:00,29.2,26.0,30.49,North,352,0.0,-999.0,87,-99.99,,,0.03,weatherlink.com 1.10,2013-12-10 06:28:00,
2013-12-09 23:43:00,29.1,26.0,30.48,NNE,14,4.0,-999.0,87,-99.99,,,0.03,weatherlink.com 1.10,2013-12-10 06:43:00,
2013-12-09 23:58:00,28.9,26.0,30.48,NW,317,4.0,-999.0,87,-99.99,,,0.00,weatherlink.com 1.10,2013-12-10 06:58:00,